Regional Weather Roundup
Issued by NWS

Home | Current Version | Previous Version | Text Only | Print | Product List | Glossary Off
Versions: 1 2 3 4 5 6 7 8 9 10 11 12 13 14 15 16 17 18 19 20 21 22 23 24 25 26 27 28 29 30 31 32 33 34 35 36 37 38 39 40 41 42 43 44 45 46 47 48 49 50

000
ASUS43 KOAX 051802
RWRNE

WEATHER ROUNDUP FOR NEBRASKA
NATIONAL WEATHER SERVICE OMAHA NE
100 PM CDT THU MAY 05 2016

NOTES: SATELLITE DATA IS BEING USED TO AUGMENT CLOUD COVER ABOVE
       12000 FEET.
       "FAIR" INDICATES FEW OR NO CLOUDS BELOW 12,000 FEET WITH NO
       SIGNIFICANT WEATHER AND/OR OBSTRUCTIONS TO VISIBILITY.

  * THESE STATIONS DO NOT REPORT WEATHER SUCH AS RAIN...SNOW OR FOG.

NEZ001>004-019>022-054>056-051900-
NEBRASKA PANHANDLE

CITY           SKY/WX    TMP DP  RH WIND       PRES   REMARKS
SCOTTSBLUFF    CLOUDY    76  41  28 CALM      30.02F
6HR MIN TEMP:  47; 6HR MAX TEMP:  77;

ALLIANCE       SUNNY     78  45  30 SW13      30.01F
6HR MIN TEMP:  39; 6HR MAX TEMP:  78;

CHADRON        SUNNY     79  43  27 VRB3      29.96F
6HR MIN TEMP:  50; 6HR MAX TEMP:  79;

KIMBALL        CLOUDY    76  36  24 SW9       30.08F
SIDNEY         CLOUDY    77  42  28 SW18      30.07F
6HR MIN TEMP:  45; 6HR MAX TEMP:  78;

$$

NEZ057>060-069>072-079>082-051900-
SOUTHWEST NEBRASKA

CITY           SKY/WX    TMP DP  RH WIND       PRES   REMARKS
NORTH PLATTE   SUNNY     77  48  35 S10       30.05F
6HR MIN TEMP:  40; 6HR MAX TEMP:  78;

IMPERIAL       SUNNY     78  45  30 S13       30.06F
6HR MIN TEMP:  45; 6HR MAX TEMP:  78;

MCCOOK         SUNNY     76  53  44 S9G18     30.07F
6HR MIN TEMP:  43; 6HR MAX TEMP:  76;

$$

NEZ005>010-023>029-035>040-094-051900-
NORTH CENTRAL NEBRASKA

CITY           SKY/WX    TMP DP  RH WIND       PRES   REMARKS
VALENTINE      SUNNY     81  42  25 S13       29.99F
6HR MIN TEMP:  42; 6HR MAX TEMP:  81;

AINSWORTH      SUNNY     79  46  30 S12       30.02F
BROKEN BOW     SUNNY     76  49  38 S15G21    30.06F HAZE
6HR MIN TEMP:  39; 6HR MAX TEMP:  76;

ORD            SUNNY     73  45  36 S8        30.05F
6HR MIN TEMP:  38; 6HR MAX TEMP:  74;

$$

NEZ041-046>049-061>064-073>077-083>087-051900-
SOUTH CENTRAL NEBRASKA

CITY           SKY/WX    TMP DP  RH WIND       PRES   REMARKS
GRAND ISLAND   SUNNY     76  40  27 SW6       30.09F
6HR MIN TEMP:  43; 6HR MAX TEMP:  76;

AURORA         SUNNY     74  39  28 S8        30.08F
HASTINGS       SUNNY     74  40  29 S6        30.08F
6HR MIN TEMP:  45; 6HR MAX TEMP:  74;

KEARNEY *      SUNNY     73  41  31 S9G16     30.09F
YORK           SUNNY     73  34  23 W3        30.08F
$$

NEZ011>018-030>034-042>045-051900-
NORTHEAST NEBRASKA

CITY           SKY/WX    TMP DP  RH WIND       PRES   REMARKS
NORFOLK        SUNNY     74  37  26 VRB3      30.05F
6HR MIN TEMP:  41; 6HR MAX TEMP:  75;

ALBION         SUNNY     74  40  29 SW8       30.06F
BLAIR          SUNNY     72  38  29 CALM      30.08F
COLUMBUS *     SUNNY     72  36  26 SW7       30.08F
FREMONT        SUNNY     71  37  29 CALM      30.08F
TEKAMAH        SUNNY     72  39  30 VRB5      30.07F
6HR MIN TEMP:  42; 6HR MAX TEMP:  72;

$$

NEZ050>053-065>068-078-088>093-051900-
SOUTHEAST NEBRASKA

CITY           SKY/WX    TMP DP  RH WIND       PRES   REMARKS
LINCOLN        SUNNY     74  36  25 CALM      30.09F
6HR MIN TEMP:  43; 6HR MAX TEMP:  74;

OMAHA EPPLEY   MOSUNNY   72  40  31 CALM      30.08F
6HR MIN TEMP:  43; 6HR MAX TEMP:  72;

BEATRICE       SUNNY     72  38  29 CALM      30.08F
FALLS CITY     SUNNY     72  40  31 VRB5      30.08F
6HR MIN TEMP:  44; 6HR MAX TEMP:  73;

$$

NEZ044-045-051>053-067-051900-
OMAHA AREA

CITY           SKY/WX    TMP DP  RH WIND       PRES   REMARKS
OMAHA EPPLEY   MOSUNNY   72  40  31 CALM      30.08F
6HR MIN TEMP:  43; 6HR MAX TEMP:  72;

BLAIR          SUNNY     72  38  29 CALM      30.08F
FREMONT        SUNNY     71  37  29 CALM      30.08F
OFFUTT AFB     SUNNY     71  41  33 W7        30.07F
$$



USA.gov is the U.S. government's official web portal to all federal, state and local government web resources and services.